Regional Weather Roundup
Issued by NWS

Home | Current Version | Previous Version | Graphics & Text | Print | Product List | Glossary On
Versions: 1 2 3 4 5 6 7 8 9 10 11 12 13 14 15 16 17 18 19 20 21 22 23 24 25 26 27 28 29 30 31 32 33 34 35 36 37 38 39 40 41 42 43 44 45 46 47 48 49 50
021
ASUS43 KFSD 192002
RWRSD

WEATHER ROUNDUP FOR SOUTH DAKOTA
NATIONAL WEATHER SERVICE SIOUX FALLS SD
200 PM CST MON FEB 19 2018

NOTE: "FAIR" INDICATES FEW OR NO CLOUDS BELOW 12,000 FEET WITH NO
SIGNIFICANT WEATHER AND/OR OBSTRUCTIONS TO VISIBILITY.


SDZ001>005-009-010-012>017-192100-
NORTHWEST AND NORTH CENTRAL SOUTH DAKOTA

CITY           SKY/WX    TMP DP  RH WIND       PRES   REMARKS
BUFFALO          N/A      2  -5  72 NE15      29.91F WCI -17
FAITH            N/A      2  -2  83 N14       30.00F WCI -16
MOBRIDGE       LGT SNOW   8   1  73 N17       30.05F VSB 3/4 WCI -10
$$

SDZ012>016-024>037-041>051-057-063-072>074-192100-
SOUTHWEST AND SOUTH CENTRAL SOUTH DAKOTA

CITY           SKY/WX    TMP DP  RH WIND       PRES   REMARKS
RAPID CTY ARPT LGT SNOW   1  -4  79 N15       29.93F VSB 1   WCI -18
PIERRE         LGT SNOW   8   4  83 N21       30.02F FOG     WCI -12
CUSTER         SNOW       1  -6  72 NE8       29.65F VSB 1/2 WCI -13
ELLSWORTH AFB  CLOUDY     2  -3  80 N12       29.92  BLWGSNOWWCI -15
PHILIP         LGT SNOW   5   1  83 N21       30.01F FOG     WCI -16
PINE RIDGE     LGT SNOW   5  -2  72 NE12      29.88F WCI -11
SPEARFISH      LGT SNOW  -2  -8  78 NE12      29.88F WCI -20
WINNER         LGT SNOW  10   4  76 N20G26    29.96F WCI  -9
$$

SDZ004>011-016>023-039-040-192100-
NORTHEAST SOUTH DAKOTA

CITY           SKY/WX    TMP DP  RH WIND       PRES   REMARKS
ABERDEEN       LGT SNOW  12   3  67 N18G29    30.08R WCI  -6
WATERTOWN      CLOUDY    10   5  80 N24       29.92F WCI -10
BROOKINGS      LGT SNOW  11   7  84 N17G25    29.89R FOG     WCI  -6
SISSETON         N/A     12   5  73 N20       30.04F WCI  -6
$$

SDZ017-020-022-023-036>040-048>070-192100-
SOUTHEAST SOUTH DAKOTA

CITY           SKY/WX    TMP DP  RH WIND       PRES   REMARKS
SIOUX FALLS    LGT SNOW  17  12  80 N18       29.87R WCI   1
HURON          LGT SNOW  12   7  80 N20       30.00R WCI  -6
CHAMBERLAIN    LGT SNOW  12   8  85 NW20      29.98F WCI  -6
MITCHELL       LGT SNOW  15  10  80 N23       29.96S WCI  -3
YANKTON        LGT SNOW  17  14  88 N16       29.89S FOG     WCI   2
$$

ABBREVIATIONS USED IN REMARKS
   TC - TEMPERATURE IN CELSIUS
  WCI - WIND CHILL INDEX
   HX - HEAT INDEX
  VSB - VISIBILITY





USA.gov is the U.S. government's official web portal to all federal, state and local government web resources and services.